Location: Ellingshausen
(50.5460°N, 10.4723°E)
Time: 23:26:31
(UTC+00:00)

Cosmos 676 Rocket - Pass Details

Date: 18 January 2026
Orbit: 750 x 779 km, 74.0° (Epoch: 18 February)

Event Time Altitude Azimuth Distance (km) Brightness Sun altitude
Rises 06:25:51 0° 196° (SSW) 3,191 7.3 -7.1°
Reaches altitude 10° 06:28:12 10° 195° (SSW) 2,269 6.6 -6.7°
Maximum altitude 06:33:20 75° 112° (ESE) 782 4.3 -6.0°
Drops below altitude 10° 06:38:29 10° 27° (NNE) 2,283 6.5 -5.3°
Sets 06:40:52 0° 26° (NNE) 3,213 7.2 -4.9°
